Regional Weather Roundup
Issued by NWS Albany, NY

Home | Current Version | Previous Version | Text Only | Print | Product List | Glossary On
Versions: 1 2 3 4 5 6 7 8 9 10 11 12 13 14 15 16 17 18 19 20 21 22 23 24 25 26 27 28 29 30 31 32 33 34 35 36 37 38 39 40 41 42 43 44 45 46 47 48 49 50
000
ASUS41 KALY 150210
RWRALY

NEW YORK STATE HOURLY WEATHER ROUNDUP
NATIONAL WEATHER SERVICE ALBANY NY
1000 PM EDT SUN SEP 14 2014

NOTE: "FAIR" INDICATES FEW OR NO CLOUDS BELOW 12,000 FEET WITH NO
SIGNIFICANT WEATHER AND/OR NO OBSTRUCTIONS TO VISIBILITY.

NYZ032-033-038>043-046>054-057>066-NYZ062>081-150300-
EAST


CITY           SKY/WX    TMP DP  RH WIND       PRES   REMARKS
ALBANY         CLEAR     49  45  86 CALM      30.23R
GLENS FALLS    CLEAR     46  43  89 CALM      30.24R
POUGHKEEPSIE   CLEAR     50  47  89 CALM      30.21S
NEWBURGH       CLEAR     52  48  87 CALM      30.23R
MONTGOMERY     CLEAR     51  46  83 CALM      30.21S
WHITE PLAINS   PTCLDY    53  45  74 CALM      30.19F
ISLIP          MOCLDY    57  50  77 CALM      30.18F
NEW YORK CITY  MOCLDY    65  44  46 SE6       30.19S
CENTRAL PARK   MOCLDY    62  45  53 CALM      30.22S
$$

NYZ005>009-017-018-044>046-055-056-150300-
CENTRAL


CITY           SKY/WX    TMP DP  RH WIND       PRES   REMARKS
FULTON         MOCLDY    43  41  93 E3        30.24F
SYRACUSE       CLOUDY    50  45  83 E3        30.25F
ROME           CLEAR     46  43  89 SW3       30.26S
ELMIRA         CLOUDY    53  47  79 CALM      30.24S
BINGHAMTON     CLEAR     49  41  74 N8        30.23S
MONTICELLO     CLEAR     46  45  93 N3        30.23S
$$

NYZ026>034-041>043-150300-
NORTH


CITY           SKY/WX    TMP DP  RH WIND       PRES   REMARKS
WATERTOWN      CLEAR     43  38  82 SE3       30.25S
FORT DRUM      NOT AVBL
MASSENA        CLEAR     40  38  93 CALM      30.26F
SARANAC LAKE   CLEAR     34  32  92 CALM      30.23S
PLATTSBURGH    PTCLDY    44  40  85 W3        30.26F
$$

NYZ001>004-010>016-019>021-150300-
WEST


CITY           SKY/WX    TMP DP  RH WIND       PRES   REMARKS
NIAGARA FALLS  PTCLDY    50  46  86 CALM      30.23S
BUFFALO        MOCLDY    54  46  74 E3        30.23S
DUNKIRK        CLOUDY    53  48  83 CALM      30.23F
JAMESTOWN      CLOUDY    50  43  76 CALM      30.24S
WELLSVILLE     CLOUDY    49  44  83 N3        30.25S
ROCHESTER      CLOUDY    53  43  68 S3        30.25S
PENN YAN       CLOUDY    52  45  77 CALM      30.25F
$$

             KEY
       WCI = WIND CHILL INDEX
       VSB = VISIBILITY
       HX  = HEAT INDEX
$$



USA.gov is the U.S. government's official web portal to all federal, state and local government web resources and services.